Fort Bragg, NC

8:07 AM EDT on May 21, 2018 (GMT -0400)
Simmons Army Air Field

Weather History for KFBG - January, 2014

Change the Weather History Date:

Thursday, January 16, 2014

  Actual Average Record
Temperature  
Mean Temperature 38 °F -  
Max Temperature 46 °F 50 °F 64 °F (2000)
Min Temperature 30 °F 31 °F 16 °F (2009)
Degree Days  
Heating Degree Days 27    
Moisture  
Dew Point 34 °F    
Average Humidity 89    
Maximum Humidity 100    
Minimum Humidity 36    
Precipitation  
Precipitation 0.03 in - - ()
Sea Level Pressure  
Sea Level Pressure 29.98 in    
Wind  
Wind Speed 8 mph (NNW)    
Max Wind Speed 12 mph    
Max Gust Speed -    
Visibility 10 miles    
Events Rain    
Averages and records for this station are not official NWS values.
T = Trace of Precipitation, MM = Missing Value Source: NWS Daily Summary

Daily Weather History Graph

Daily Weather History Graph

Search for Another Location

Airport or City:

Astronomy

Jan. 16, 2014 Rise Set
Actual Time 7:23 AM EST 5:28 PM EST
Civil Twilight 6:55 AM EST 5:55 PM EST
Nautical Twilight 6:24 AM EST 6:26 PM EST
Astronomical Twilight 5:54 AM EST 6:57 PM EST
Moon 6:14 PM EST (1/16) 7:18 AM EST (1/16)
Length of Visible Light 10h 59m
Length of Day
10h 04m
Full, 100% of the Moon is Illuminated
Jan 16
Full
Jan 24
Last Quarter
Jan 30
New
Feb 6
First Quarter
Feb 14
Full

Hourly Weather History & Observations

Time (EST) Temp. Windchill Dew Point Humidity Pressure Visibility Wind Dir Wind Speed Gust Speed Precip Events Conditions
12:58 AM 38.3 °F 32.5 °F 32.5 °F 80% 29.92 in 10.0 mi NNW 8.1 mph - N/A   Clear
1:58 AM 37.4 °F 32.1 °F 33.3 °F 85% 29.93 in 10.0 mi NNW 6.9 mph - N/A   Scattered Clouds
2:58 AM 38.1 °F 32.9 °F 36.3 °F 93% 29.94 in 10.0 mi NNW 6.9 mph - N/A   Overcast
3:58 AM 38.5 °F 32.1 °F 37.2 °F 95% 29.93 in 10.0 mi NNW 9.2 mph - N/A   Overcast
4:01 AM 39.2 °F 33.6 °F 37.4 °F 93% 29.92 in 10.0 mi NNW 8.1 mph - N/A   Mostly Cloudy
4:40 AM 37.4 °F 30.8 °F 37.4 °F 100% 29.92 in 10.0 mi NW 9.2 mph - N/A   Scattered Clouds
4:51 AM 37.4 °F 30.3 °F 37.4 °F 100% 29.93 in 10.0 mi NNW 10.4 mph - N/A   Mostly Cloudy
4:57 AM 37.4 °F 29.8 °F 37.4 °F 100% 29.92 in 10.0 mi NNW 11.5 mph - N/A   Mostly Cloudy
4:58 AM 37.2 °F 29.6 °F 37.0 °F 99% 29.93 in 10.0 mi North 11.5 mph - 0.00 in   Mostly Cloudy
5:12 AM 37.4 °F 30.8 °F 35.6 °F 93% 29.92 in 10.0 mi North 9.2 mph - N/A   Overcast
5:14 AM 37.4 °F 30.3 °F 35.6 °F 93% 29.93 in 10.0 mi NNW 10.4 mph - N/A   Overcast
5:24 AM 37.4 °F 30.3 °F 35.6 °F 93% 29.93 in 10.0 mi NNW 10.4 mph - N/A   Overcast
5:28 AM 37.4 °F 31.4 °F 35.6 °F 93% 29.93 in 10.0 mi North 8.1 mph - N/A   Overcast
5:58 AM 36.3 °F 31.6 °F 36.0 °F 99% 29.96 in 10.0 mi NNW 5.8 mph - 0.00 in   Overcast
6:24 AM 35.6 °F 29.9 °F 35.6 °F 100% 29.96 in 10.0 mi NNW 6.9 mph - N/A Rain Light Rain
6:44 AM 35.6 °F 29.2 °F 35.6 °F 100% 29.97 in 10.0 mi NNW 8.1 mph - N/A Rain Light Rain
6:48 AM 35.6 °F 29.9 °F 35.6 °F 100% 29.97 in 10.0 mi NNW 6.9 mph - N/A Rain Light Rain
6:56 AM 35.6 °F 29.2 °F 35.6 °F 100% 29.98 in 10.0 mi NNW 8.1 mph - N/A   Overcast
6:58 AM 35.1 °F 28.6 °F 35.1 °F 100% 29.99 in 10.0 mi NNW 8.1 mph - 0.03 in   Overcast
7:00 AM 35.6 °F 29.2 °F 35.6 °F 100% 29.98 in 10.0 mi NW 8.1 mph - N/A   Overcast
7:01 AM 35.6 °F 29.2 °F 35.6 °F 100% 29.98 in 10.0 mi NW 8.1 mph - N/A   Overcast
7:25 AM 35.6 °F 29.2 °F 35.6 °F 100% 29.98 in 10.0 mi NNW 8.1 mph - N/A   Overcast
7:49 AM 35.6 °F 29.2 °F 35.6 °F 100% 29.99 in 10.0 mi NNW 8.1 mph - N/A   Overcast
7:58 AM 35.4 °F 27.8 °F 35.2 °F 99% 30.00 in 10.0 mi NNW 10.4 mph - 0.00 in   Overcast
8:00 AM 35.6 °F 28.0 °F 35.6 °F 100% 29.98 in 10.0 mi North 10.4 mph - N/A   Overcast
8:02 AM 35.6 °F 28.6 °F 35.6 °F 100% 29.98 in 10.0 mi North 9.2 mph - N/A   Mostly Cloudy
8:04 AM 35.6 °F 28.0 °F 35.6 °F 100% 29.98 in 10.0 mi North 10.4 mph - N/A   Overcast
8:08 AM 35.6 °F 28.6 °F 35.6 °F 100% 29.98 in 10.0 mi NNW 9.2 mph - N/A   Overcast
8:44 AM 35.6 °F 29.9 °F 35.6 °F 100% 29.99 in 10.0 mi NNW 6.9 mph - N/A   Mostly Cloudy
8:58 AM 36.7 °F 29.9 °F 36.3 °F 99% 30.02 in 10.0 mi NNW 9.2 mph - N/A   Overcast
9:02 AM 37.4 °F 31.4 °F 35.6 °F 93% 30.01 in 10.0 mi North 8.1 mph - N/A   Overcast
9:40 AM 37.4 °F 30.3 °F 37.4 °F 100% 30.01 in 10.0 mi North 10.4 mph - N/A   Overcast
9:58 AM 38.3 °F 32.5 °F 37.8 °F 98% 30.04 in 10.0 mi North 8.1 mph - N/A   Overcast
10:14 AM 39.2 °F 33.6 °F 37.4 °F 93% 30.02 in 10.0 mi NNE 8.1 mph - N/A   Mostly Cloudy
10:16 AM 39.2 °F 33.0 °F 37.4 °F 93% 30.02 in 10.0 mi NNE 9.2 mph - N/A   Overcast
10:18 AM 39.2 °F 35.0 °F 37.4 °F 93% 30.02 in 10.0 mi North 5.8 mph - N/A   Mostly Cloudy
10:20 AM 39.2 °F 35.0 °F 37.4 °F 93% 30.02 in 10.0 mi North 5.8 mph - N/A   Mostly Cloudy
10:58 AM 38.7 °F 33.6 °F 35.1 °F 87% 30.04 in 10.0 mi NNE 6.9 mph - N/A   Overcast
11:42 AM 39.2 °F 35.0 °F 33.8 °F 81% 30.00 in 10.0 mi North 5.8 mph - N/A   Overcast
11:58 AM 39.6 °F 34.7 °F 34.5 °F 82% 30.01 in 10.0 mi Variable 6.9 mph - N/A   Overcast
12:44 PM 41.0 °F 38.0 °F 32.0 °F 70% 29.98 in 10.0 mi North 4.6 mph - N/A   Mostly Cloudy
12:58 PM 43.2 °F 40.5 °F 32.7 °F 67% 29.99 in 10.0 mi NNW 4.6 mph - N/A   Scattered Clouds
1:58 PM 45.5 °F 44.2 °F 27.7 °F 50% 29.96 in 10.0 mi Variable 3.5 mph - N/A   Mostly Cloudy
2:58 PM 45.9 °F 42.3 °F 24.4 °F 43% 29.96 in 10.0 mi NNW 6.9 mph - N/A   Clear
3:58 PM 46.6 °F - 21.9 °F 38% 29.96 in 10.0 mi West 9.2 mph - N/A   Clear
4:58 PM 45.1 °F - 19.2 °F 36% 29.98 in 10.0 mi WSW 2.3 mph - N/A   Clear
5:58 PM 41.4 °F - 21.7 °F 46% 30.00 in 10.0 mi Calm Calm - N/A   Clear
6:58 PM 36.3 °F - 29.8 °F 77% 30.03 in 10.0 mi Calm Calm - N/A   Clear
7:58 PM 34.3 °F - 32.5 °F 93% 30.04 in 10.0 mi Calm Calm - N/A   Clear
8:58 PM 32.5 °F - 32.0 °F 98% 30.05 in 10.0 mi Calm Calm - N/A   Clear
9:58 PM 31.1 °F - 30.7 °F 99% 30.06 in 10.0 mi Calm Calm - N/A   Clear
10:58 PM 30.6 °F - 30.4 °F 99% 30.07 in 10.0 mi Calm Calm - N/A   Clear
11:58 PM 30.0 °F - 29.8 °F 99% 30.05 in 10.0 mi Calm Calm - N/A   Clear